Data supplied by UK-AIR on 25/3/2020
All Data GMT hour ending 
Status: R =Ratified P=Provisional,P*=As supplied
,,Chatham Roadside,,,,,,,,,,,,,,,,,,,,,,,
Date,time,"PM<sub>10</sub> particulate matter (Hourly measured)",status,unit,"Nitric oxide",status,unit,"Nitrogen dioxide",status,unit,"Nitrogen oxides as nitrogen dioxide",status,unit,"PM<sub>2.5</sub> particulate matter (Hourly measured)",status,unit
 
01-01-2019,01:00,96.620,R,ugm-3 (Ref.eq),10.96043,R,ugm-3,27.10551,R,ugm-3,43.91127,R,ugm-3,54.000,R,ugm-3 (BAM)
01-01-2019,02:00,24.155,R,ugm-3 (Ref.eq),7.66301,R,ugm-3,21.32623,R,ugm-3,33.07602,R,ugm-3,13.000,R,ugm-3 (BAM)
01-01-2019,03:00,18.358,R,ugm-3 (Ref.eq),4.24949,R,ugm-3,16.25962,R,ugm-3,22.77541,R,ugm-3,12.000,R,ugm-3 (BAM)
01-01-2019,04:00,21.256,R,ugm-3 (Ref.eq),4.00567,R,ugm-3,14.65533,R,ugm-3,20.79726,R,ugm-3,9.000,R,ugm-3 (BAM)
01-01-2019,05:00,13.527,R,ugm-3 (Ref.eq),2.75172,R,ugm-3,12.40788,R,ugm-3,16.62712,R,ugm-3,7.000,R,ugm-3 (BAM)
01-01-2019,06:00,13.527,R,ugm-3 (Ref.eq),2.22924,R,ugm-3,10.48236,R,ugm-3,13.90048,R,ugm-3,5.000,R,ugm-3 (BAM)
01-01-2019,07:00,,,,2.47306,R,ugm-3,8.39768,R,ugm-3,12.18966,R,ugm-3,,,
01-01-2019,08:00,,,,4.17983,R,ugm-3,12.99824,R,ugm-3,19.40721,R,ugm-3,,,
01-01-2019,09:00,,,,3.27420,R,ugm-3,15.34919,R,ugm-3,20.36956,R,ugm-3,,,
01-01-2019,10:00,13.527,R,ugm-3 (Ref.eq),4.91130,R,ugm-3,14.33598,R,ugm-3,21.86653,R,ugm-3,10.000,R,ugm-3 (BAM)
01-01-2019,11:00,14.493,R,ugm-3 (Ref.eq),7.45402,R,ugm-3,18.24285,R,ugm-3,29.67219,R,ugm-3,11.000,R,ugm-3 (BAM)
01-01-2019,12:00,18.358,R,ugm-3 (Ref.eq),8.70797,R,ugm-3,22.04074,R,ugm-3,35.39277,R,ugm-3,12.000,R,ugm-3 (BAM)
01-01-2019,13:00,20.290,R,ugm-3 (Ref.eq),12.53948,R,ugm-3,28.78321,R,ugm-3,48.01013,R,ugm-3,10.000,R,ugm-3 (BAM)
01-01-2019,14:00,18.358,R,ugm-3 (Ref.eq),13.89792,R,ugm-3,31.08429,R,ugm-3,52.39413,R,ugm-3,14.000,R,ugm-3 (BAM)
01-01-2019,15:00,15.459,R,ugm-3 (Ref.eq),8.46415,R,ugm-3,20.32952,R,ugm-3,33.30770,R,ugm-3,8.000,R,ugm-3 (BAM)
01-01-2019,16:00,21.256,R,ugm-3 (Ref.eq),8.77763,R,ugm-3,22.52202,R,ugm-3,35.98087,R,ugm-3,8.000,R,ugm-3 (BAM)
01-01-2019,17:00,18.358,R,ugm-3 (Ref.eq),4.11016,R,ugm-3,16.74057,R,ugm-3,23.04273,R,ugm-3,9.000,R,ugm-3 (BAM)
01-01-2019,18:00,22.223,R,ugm-3 (Ref.eq),2.61239,R,ugm-3,10.05527,R,ugm-3,14.06087,R,ugm-3,7.000,R,ugm-3 (BAM)
01-01-2019,19:00,19.324,R,ugm-3 (Ref.eq),7.97650,R,ugm-3,19.41987,R,ugm-3,31.65033,R,ugm-3,12.000,R,ugm-3 (BAM)
01-01-2019,20:00,21.256,R,ugm-3 (Ref.eq),4.77197,R,ugm-3,10.91411,R,ugm-3,18.23102,R,ugm-3,9.000,R,ugm-3 (BAM)
01-01-2019,21:00,16.425,R,ugm-3 (Ref.eq),5.78209,R,ugm-3,10.06029,R,ugm-3,18.92605,R,ugm-3,5.000,R,ugm-3 (BAM)
01-01-2019,22:00,16.425,R,ugm-3 (Ref.eq),2.92588,R,ugm-3,7.75684,R,ugm-3,12.24312,R,ugm-3,5.000,R,ugm-3 (BAM)
01-01-2019,23:00,14.493,R,ugm-3 (Ref.eq),2.61239,R,ugm-3,8.39790,R,ugm-3,12.40351,R,ugm-3,5.000,R,ugm-3 (BAM)
01-01-2019,24:00,19.324,R,ugm-3 (Ref.eq),2.64722,R,ugm-3,8.50488,R,ugm-3,12.56390,R,ugm-3,6.000,R,ugm-3 (BAM)
02-01-2019,01:00,23.189,R,ugm-3 (Ref.eq),1.57647,R,ugm-3,5.69967,R,ugm-3,8.11688,R,ugm-3,5.000,R,ugm-3 (BAM)
02-01-2019,02:00,17.392,R,ugm-3 (Ref.eq),1.62283,R,ugm-3,10.61262,R,ugm-3,13.10093,R,ugm-3,10.000,R,ugm-3 (BAM)
02-01-2019,03:00,26.087,R,ugm-3 (Ref.eq),1.18235,R,ugm-3,8.01279,R,ugm-3,9.82570,R,ugm-3,7.000,R,ugm-3 (BAM)
02-01-2019,04:00,21.256,R,ugm-3 (Ref.eq),1.07803,R,ugm-3,6.14353,R,ugm-3,7.79648,R,ugm-3,7.000,R,ugm-3 (BAM)
02-01-2019,05:00,21.256,R,ugm-3 (Ref.eq),1.70397,R,ugm-3,7.05277,R,ugm-3,9.66550,R,ugm-3,8.000,R,ugm-3 (BAM)
02-01-2019,06:00,23.189,R,ugm-3 (Ref.eq),2.85155,R,ugm-3,10.63324,R,ugm-3,15.00555,R,ugm-3,8.000,R,ugm-3 (BAM)
02-01-2019,07:00,19.324,R,ugm-3 (Ref.eq),6.57247,R,ugm-3,16.83622,R,ugm-3,26.91387,R,ugm-3,6.000,R,ugm-3 (BAM)
02-01-2019,08:00,26.087,R,ugm-3 (Ref.eq),9.18060,R,ugm-3,25.43968,R,ugm-3,39.51640,R,ugm-3,9.000,R,ugm-3 (BAM)
02-01-2019,09:00,25.121,R,ugm-3 (Ref.eq),11.92782,R,ugm-3,29.66461,R,ugm-3,47.95368,R,ugm-3,7.000,R,ugm-3 (BAM)
02-01-2019,10:00,25.121,R,ugm-3 (Ref.eq),11.33665,R,ugm-3,27.95444,R,ugm-3,45.33706,R,ugm-3,7.000,R,ugm-3 (BAM)
02-01-2019,11:00,22.223,R,ugm-3 (Ref.eq),12.34512,R,ugm-3,28.86456,R,ugm-3,47.79348,R,ugm-3,5.000,R,ugm-3 (BAM)
02-01-2019,12:00,24.155,R,ugm-3 (Ref.eq),13.56225,R,ugm-3,29.34795,R,ugm-3,50.14310,R,ugm-3,7.000,R,ugm-3 (BAM)
02-01-2019,13:00,28.020,R,ugm-3 (Ref.eq),13.04062,R,ugm-3,28.81275,R,ugm-3,48.80809,R,ugm-3,9.000,R,ugm-3 (BAM)
02-01-2019,14:00,31.885,R,ugm-3 (Ref.eq),14.36207,R,ugm-3,30.31099,R,ugm-3,52.33253,R,ugm-3,7.000,R,ugm-3 (BAM)
02-01-2019,15:00,28.986,R,ugm-3 (Ref.eq),14.84892,R,ugm-3,34.31715,R,ugm-3,57.08517,R,ugm-3,7.000,R,ugm-3 (BAM)
02-01-2019,16:00,25.121,R,ugm-3 (Ref.eq),15.92695,R,ugm-3,35.33423,R,ugm-3,59.75520,R,ugm-3,8.000,R,ugm-3 (BAM)
02-01-2019,17:00,23.189,R,ugm-3 (Ref.eq),11.16277,R,ugm-3,36.33793,R,ugm-3,53.45394,R,ugm-3,15.000,R,ugm-3 (BAM)
02-01-2019,18:00,28.020,R,ugm-3 (Ref.eq),11.47575,R,ugm-3,36.23184,R,ugm-3,53.82774,R,ugm-3,9.000,R,ugm-3 (BAM)
02-01-2019,19:00,22.223,R,ugm-3 (Ref.eq),11.54530,R,ugm-3,35.16399,R,ugm-3,52.86653,R,ugm-3,12.000,R,ugm-3 (BAM)
02-01-2019,20:00,30.918,R,ugm-3 (Ref.eq),11.58007,R,ugm-3,36.33888,R,ugm-3,54.09474,R,ugm-3,15.000,R,ugm-3 (BAM)
02-01-2019,21:00,24.155,R,ugm-3 (Ref.eq),8.93717,R,ugm-3,34.73081,R,ugm-3,48.43429,R,ugm-3,16.000,R,ugm-3 (BAM)
02-01-2019,22:00,22.223,R,ugm-3 (Ref.eq),6.01607,R,ugm-3,28.47626,R,ugm-3,37.70078,R,ugm-3,14.000,R,ugm-3 (BAM)
02-01-2019,23:00,19.324,R,ugm-3 (Ref.eq),7.72005,R,ugm-3,26.55774,R,ugm-3,38.39499,R,ugm-3,9.000,R,ugm-3 (BAM)
02-01-2019,24:00,21.256,R,ugm-3 (Ref.eq),3.68615,R,ugm-3,26.12130,R,ugm-3,31.77332,R,ugm-3,12.000,R,ugm-3 (BAM)
03-01-2019,01:00,25.121,R,ugm-3 (Ref.eq),3.56439,R,ugm-3,16.08309,R,ugm-3,21.54842,R,ugm-3,12.000,R,ugm-3 (BAM)
03-01-2019,02:00,26.087,R,ugm-3 (Ref.eq),3.51810,R,ugm-3,17.64753,R,ugm-3,23.04188,R,ugm-3,12.000,R,ugm-3 (BAM)
03-01-2019,03:00,22.223,R,ugm-3 (Ref.eq),2.77745,R,ugm-3,16.86302,R,ugm-3,21.12172,R,ugm-3,12.000,R,ugm-3 (BAM)
03-01-2019,04:00,23.189,R,ugm-3 (Ref.eq),2.56914,R,ugm-3,18.24918,R,ugm-3,22.18847,R,ugm-3,12.000,R,ugm-3 (BAM)
03-01-2019,05:00,29.952,R,ugm-3 (Ref.eq),3.08991,R,ugm-3,20.33091,R,ugm-3,25.06871,R,ugm-3,15.000,R,ugm-3 (BAM)
03-01-2019,06:00,28.020,R,ugm-3 (Ref.eq),7.88101,R,ugm-3,27.91921,R,ugm-3,40.00325,R,ugm-3,15.000,R,ugm-3 (BAM)
03-01-2019,07:00,28.020,R,ugm-3 (Ref.eq),11.07507,R,ugm-3,35.39605,R,ugm-3,52.37759,R,ugm-3,13.000,R,ugm-3 (BAM)
03-01-2019,08:00,31.885,R,ugm-3 (Ref.eq),30.06587,R,ugm-3,52.09429,R,ugm-3,98.19465,R,ugm-3,13.000,R,ugm-3 (BAM)
03-01-2019,09:00,25.121,R,ugm-3 (Ref.eq),36.10682,R,ugm-3,51.04563,R,ugm-3,106.40865,R,ugm-3,17.000,R,ugm-3 (BAM)
03-01-2019,10:00,28.986,R,ugm-3 (Ref.eq),37.98160,R,ugm-3,51.42461,R,ugm-3,109.66225,R,ugm-3,14.000,R,ugm-3 (BAM)
03-01-2019,11:00,32.851,R,ugm-3 (Ref.eq),25.17062,R,ugm-3,43.75895,R,ugm-3,82.35336,R,ugm-3,15.000,R,ugm-3 (BAM)
03-01-2019,12:00,43.479,R,ugm-3 (Ref.eq),25.10118,R,ugm-3,46.42563,R,ugm-3,84.91357,R,ugm-3,17.000,R,ugm-3 (BAM)
03-01-2019,13:00,37.682,R,ugm-3 (Ref.eq),22.35846,R,ugm-3,36.01656,R,ugm-3,70.29905,R,ugm-3,17.000,R,ugm-3 (BAM)
03-01-2019,14:00,29.952,R,ugm-3 (Ref.eq),19.54629,R,ugm-3,31.52778,R,ugm-3,61.49834,R,ugm-3,12.000,R,ugm-3 (BAM)
03-01-2019,15:00,33.817,R,ugm-3 (Ref.eq),19.16439,R,ugm-3,40.27401,R,ugm-3,69.65900,R,ugm-3,14.000,R,ugm-3 (BAM)
03-01-2019,16:00,29.952,R,ugm-3 (Ref.eq),26.03857,R,ugm-3,42.85481,R,ugm-3,82.78007,R,ugm-3,11.000,R,ugm-3 (BAM)
03-01-2019,17:00,35.749,R,ugm-3 (Ref.eq),24.82344,R,ugm-3,46.53147,R,ugm-3,84.59355,R,ugm-3,11.000,R,ugm-3 (BAM)
03-01-2019,18:00,32.851,R,ugm-3 (Ref.eq),19.92819,R,ugm-3,45.98343,R,ugm-3,76.53956,R,ugm-3,18.000,R,ugm-3 (BAM)
03-01-2019,19:00,34.783,R,ugm-3 (Ref.eq),11.76944,R,ugm-3,33.58465,R,ugm-3,51.63087,R,ugm-3,15.000,R,ugm-3 (BAM)
03-01-2019,20:00,28.986,R,ugm-3 (Ref.eq),15.90089,R,ugm-3,42.07772,R,ugm-3,66.45874,R,ugm-3,17.000,R,ugm-3 (BAM)
03-01-2019,21:00,31.885,R,ugm-3 (Ref.eq),18.40059,R,ugm-3,43.68533,R,ugm-3,71.89918,R,ugm-3,18.000,R,ugm-3 (BAM)
03-01-2019,22:00,29.952,R,ugm-3 (Ref.eq),15.20653,R,ugm-3,46.60934,R,ugm-3,69.92569,R,ugm-3,22.000,R,ugm-3 (BAM)
03-01-2019,23:00,30.918,R,ugm-3 (Ref.eq),25.55252,R,ugm-3,50.69399,R,ugm-3,89.87398,R,ugm-3,24.000,R,ugm-3 (BAM)
03-01-2019,24:00,26.087,R,ugm-3 (Ref.eq),13.54006,R,ugm-3,43.51076,R,ugm-3,64.27189,R,ugm-3,21.000,R,ugm-3 (BAM)
04-01-2019,01:00,28.986,R,ugm-3 (Ref.eq),8.64219,R,ugm-3,37.18230,R,ugm-3,50.43348,R,ugm-3,21.000,R,ugm-3 (BAM)
04-01-2019,02:00,28.986,R,ugm-3 (Ref.eq),7.67168,R,ugm-3,36.18425,R,ugm-3,47.94733,R,ugm-3,23.000,R,ugm-3 (BAM)
04-01-2019,03:00,26.087,R,ugm-3 (Ref.eq),9.21988,R,ugm-3,34.23657,R,ugm-3,48.37352,R,ugm-3,23.000,R,ugm-3 (BAM)
04-01-2019,04:00,26.087,R,ugm-3 (Ref.eq),9.11590,R,ugm-3,37.16630,R,ugm-3,51.14381,R,ugm-3,25.000,R,ugm-3 (BAM)
04-01-2019,05:00,26.087,R,ugm-3 (Ref.eq),5.16452,R,ugm-3,33.04951,R,ugm-3,40.96833,R,ugm-3,23.000,R,ugm-3 (BAM)
04-01-2019,06:00,33.817,R,ugm-3 (Ref.eq),6.75894,R,ugm-3,32.52266,R,ugm-3,42.88622,R,ugm-3,31.000,R,ugm-3 (BAM)
04-01-2019,07:00,57.006,R,ugm-3 (Ref.eq),13.06728,R,ugm-3,30.04211,R,ugm-3,50.07832,R,ugm-3,42.000,R,ugm-3 (BAM)
04-01-2019,08:00,62.803,R,ugm-3 (Ref.eq),32.54687,R,ugm-3,45.72377,R,ugm-3,95.62828,R,ugm-3,44.000,R,ugm-3 (BAM)
04-01-2019,09:00,,,,32.82416,R,ugm-3,45.13877,R,ugm-3,95.46845,R,ugm-3,,,
04-01-2019,10:00,,,,,,,,,,,,,,,
04-01-2019,11:00,68.600,R,ugm-3 (Ref.eq),63.77662,R,ugm-3,55.90836,R,ugm-3,153.69781,R,ugm-3,35.000,R,ugm-3 (BAM)
04-01-2019,12:00,49.276,R,ugm-3 (Ref.eq),32.26958,R,ugm-3,39.59614,R,ugm-3,89.07547,R,ugm-3,34.000,R,ugm-3 (BAM)
04-01-2019,13:00,53.141,R,ugm-3 (Ref.eq),31.57636,R,ugm-3,47.63807,R,ugm-3,96.05447,R,ugm-3,30.000,R,ugm-3 (BAM)
04-01-2019,14:00,39.614,R,ugm-3 (Ref.eq),29.28872,R,ugm-3,40.97024,R,ugm-3,85.87899,R,ugm-3,21.000,R,ugm-3 (BAM)
04-01-2019,15:00,38.648,R,ugm-3 (Ref.eq),14.93898,R,ugm-3,36.86822,R,ugm-3,59.77433,R,ugm-3,25.000,R,ugm-3 (BAM)
04-01-2019,16:00,42.513,R,ugm-3 (Ref.eq),17.78120,R,ugm-3,44.71014,R,ugm-3,71.97426,R,ugm-3,29.000,R,ugm-3 (BAM)
04-01-2019,17:00,56.040,R,ugm-3 (Ref.eq),42.91057,R,ugm-3,67.65809,R,ugm-3,133.45339,R,ugm-3,31.000,R,ugm-3 (BAM)
04-01-2019,18:00,41.547,R,ugm-3 (Ref.eq),43.18786,R,ugm-3,69.89666,R,ugm-3,136.11713,R,ugm-3,21.000,R,ugm-3 (BAM)
04-01-2019,19:00,27.054,R,ugm-3 (Ref.eq),13.17126,R,ugm-3,43.57429,R,ugm-3,63.76994,R,ugm-3,17.000,R,ugm-3 (BAM)
04-01-2019,20:00,39.614,R,ugm-3 (Ref.eq),31.16043,R,ugm-3,65.00411,R,ugm-3,112.78276,R,ugm-3,23.000,R,ugm-3 (BAM)
04-01-2019,21:00,40.580,R,ugm-3 (Ref.eq),39.13250,R,ugm-3,69.93492,R,ugm-3,129.93725,R,ugm-3,27.000,R,ugm-3 (BAM)
04-01-2019,22:00,38.648,R,ugm-3 (Ref.eq),17.39993,R,ugm-3,60.53134,R,ugm-3,87.21086,R,ugm-3,25.000,R,ugm-3 (BAM)
04-01-2019,23:00,36.716,R,ugm-3 (Ref.eq),9.91311,R,ugm-3,51.87310,R,ugm-3,67.07298,R,ugm-3,27.000,R,ugm-3 (BAM)
04-01-2019,24:00,32.851,R,ugm-3 (Ref.eq),4.81791,R,ugm-3,39.33465,R,ugm-3,46.72200,R,ugm-3,28.000,R,ugm-3 (BAM)
05-01-2019,01:00,33.817,R,ugm-3 (Ref.eq),4.81828,R,ugm-3,38.04158,R,ugm-3,45.42950,R,ugm-3,23.000,R,ugm-3 (BAM)
05-01-2019,02:00,32.851,R,ugm-3 (Ref.eq),3.28940,R,ugm-3,31.20023,R,ugm-3,36.24391,R,ugm-3,23.000,R,ugm-3 (BAM)
05-01-2019,03:00,26.087,R,ugm-3 (Ref.eq),2.25857,R,ugm-3,26.28327,R,ugm-3,29.74635,R,ugm-3,18.000,R,ugm-3 (BAM)
05-01-2019,04:00,23.189,R,ugm-3 (Ref.eq),2.05008,R,ugm-3,22.75781,R,ugm-3,25.90122,R,ugm-3,24.000,R,ugm-3 (BAM)
05-01-2019,05:00,34.783,R,ugm-3 (Ref.eq),2.05008,R,ugm-3,22.43738,R,ugm-3,25.58080,R,ugm-3,19.000,R,ugm-3 (BAM)
05-01-2019,06:00,30.918,R,ugm-3 (Ref.eq),3.26624,R,ugm-3,25.21884,R,ugm-3,30.22699,R,ugm-3,23.000,R,ugm-3 (BAM)
05-01-2019,07:00,27.054,R,ugm-3 (Ref.eq),2.46705,R,ugm-3,12.87947,R,ugm-3,16.66223,R,ugm-3,20.000,R,ugm-3 (BAM)
05-01-2019,08:00,28.020,R,ugm-3 (Ref.eq),6.53247,R,ugm-3,18.82216,R,ugm-3,28.83848,R,ugm-3,21.000,R,ugm-3 (BAM)
05-01-2019,09:00,34.783,R,ugm-3 (Ref.eq),6.46298,R,ugm-3,20.58426,R,ugm-3,30.49402,R,ugm-3,21.000,R,ugm-3 (BAM)
05-01-2019,10:00,29.952,R,ugm-3 (Ref.eq),9.27750,R,ugm-3,26.30878,R,ugm-3,40.53408,R,ugm-3,25.000,R,ugm-3 (BAM)
05-01-2019,11:00,35.749,R,ugm-3 (Ref.eq),10.28517,R,ugm-3,27.70096,R,ugm-3,43.47133,R,ugm-3,25.000,R,ugm-3 (BAM)
05-01-2019,12:00,28.986,R,ugm-3 (Ref.eq),10.18093,R,ugm-3,28.12782,R,ugm-3,43.73835,R,ugm-3,17.000,R,ugm-3 (BAM)
05-01-2019,13:00,36.716,R,ugm-3 (Ref.eq),9.65972,R,ugm-3,27.53847,R,ugm-3,42.34983,R,ugm-3,17.000,R,ugm-3 (BAM)
05-01-2019,14:00,28.986,R,ugm-3 (Ref.eq),11.46657,R,ugm-3,25.40886,R,ugm-3,42.99069,R,ugm-3,17.000,R,ugm-3 (BAM)
05-01-2019,15:00,27.054,R,ugm-3 (Ref.eq),15.63623,R,ugm-3,31.83257,R,ugm-3,55.80779,R,ugm-3,23.000,R,ugm-3 (BAM)
05-01-2019,16:00,24.155,R,ugm-3 (Ref.eq),10.04194,R,ugm-3,27.53986,R,ugm-3,42.93729,R,ugm-3,18.000,R,ugm-3 (BAM)
05-01-2019,17:00,22.223,R,ugm-3 (Ref.eq),8.65205,R,ugm-3,29.88461,R,ugm-3,43.15090,R,ugm-3,23.000,R,ugm-3 (BAM)
05-01-2019,18:00,26.087,R,ugm-3 (Ref.eq),9.34699,R,ugm-3,32.39716,R,ugm-3,46.72901,R,ugm-3,17.000,R,ugm-3 (BAM)
05-01-2019,19:00,34.783,R,ugm-3 (Ref.eq),15.49725,R,ugm-3,42.88681,R,ugm-3,66.64892,R,ugm-3,25.000,R,ugm-3 (BAM)
05-01-2019,20:00,47.344,R,ugm-3 (Ref.eq),21.12629,R,ugm-3,56.79246,R,ugm-3,89.18566,R,ugm-3,29.000,R,ugm-3 (BAM)
05-01-2019,21:00,42.513,R,ugm-3 (Ref.eq),23.03738,R,ugm-3,60.16390,R,ugm-3,95.48740,R,ugm-3,28.000,R,ugm-3 (BAM)
05-01-2019,22:00,37.682,R,ugm-3 (Ref.eq),14.45483,R,ugm-3,49.66540,R,ugm-3,71.82916,R,ugm-3,27.000,R,ugm-3 (BAM)
05-01-2019,23:00,30.918,R,ugm-3 (Ref.eq),10.45890,R,ugm-3,44.41723,R,ugm-3,60.45399,R,ugm-3,22.000,R,ugm-3 (BAM)
05-01-2019,24:00,29.952,R,ugm-3 (Ref.eq),7.92236,R,ugm-3,40.88330,R,ugm-3,53.03075,R,ugm-3,19.000,R,ugm-3 (BAM)
06-01-2019,01:00,19.324,R,ugm-3 (Ref.eq),8.03485,R,ugm-3,34.29065,R,ugm-3,46.61058,R,ugm-3,15.000,R,ugm-3 (BAM)
06-01-2019,02:00,16.425,R,ugm-3 (Ref.eq),5.94486,R,ugm-3,24.43287,R,ugm-3,33.54820,R,ugm-3,15.000,R,ugm-3 (BAM)
06-01-2019,03:00,24.155,R,ugm-3 (Ref.eq),4.04065,R,ugm-3,26.08565,R,ugm-3,32.28122,R,ugm-3,16.000,R,ugm-3 (BAM)
06-01-2019,04:00,24.155,R,ugm-3 (Ref.eq),6.02614,R,ugm-3,29.67953,R,ugm-3,38.91948,R,ugm-3,19.000,R,ugm-3 (BAM)
06-01-2019,05:00,19.324,R,ugm-3 (Ref.eq),4.28448,R,ugm-3,22.66032,R,ugm-3,29.22976,R,ugm-3,19.000,R,ugm-3 (BAM)
06-01-2019,06:00,24.155,R,ugm-3 (Ref.eq),3.51815,R,ugm-3,20.14147,R,ugm-3,25.53589,R,ugm-3,26.000,R,ugm-3 (BAM)
06-01-2019,07:00,28.020,R,ugm-3 (Ref.eq),4.35415,R,ugm-3,21.85755,R,ugm-3,28.53382,R,ugm-3,19.000,R,ugm-3 (BAM)
06-01-2019,08:00,31.885,R,ugm-3 (Ref.eq),8.84762,R,ugm-3,29.15425,R,ugm-3,42.72042,R,ugm-3,27.000,R,ugm-3 (BAM)
06-01-2019,09:00,26.087,R,ugm-3 (Ref.eq),11.63428,R,ugm-3,31.14497,R,ugm-3,48.98394,R,ugm-3,26.000,R,ugm-3 (BAM)
06-01-2019,10:00,45.411,R,ugm-3 (Ref.eq),21.94489,R,ugm-3,41.24620,R,ugm-3,74.89457,R,ugm-3,32.000,R,ugm-3 (BAM)
06-01-2019,11:00,28.986,R,ugm-3 (Ref.eq),35.21633,R,ugm-3,47.93181,R,ugm-3,101.92942,R,ugm-3,22.000,R,ugm-3 (BAM)
06-01-2019,12:00,29.952,R,ugm-3 (Ref.eq),31.17568,R,ugm-3,51.29006,R,ugm-3,99.09210,R,ugm-3,18.000,R,ugm-3 (BAM)
06-01-2019,13:00,33.817,R,ugm-3 (Ref.eq),39.88397,R,ugm-3,57.74524,R,ugm-3,118.89982,R,ugm-3,17.000,R,ugm-3 (BAM)
06-01-2019,14:00,34.783,R,ugm-3 (Ref.eq),36.67932,R,ugm-3,57.78735,R,ugm-3,114.02819,R,ugm-3,19.000,R,ugm-3 (BAM)
06-01-2019,15:00,29.952,R,ugm-3 (Ref.eq),28.73736,R,ugm-3,50.69248,R,ugm-3,94.75582,R,ugm-3,11.000,R,ugm-3 (BAM)
06-01-2019,16:00,28.020,R,ugm-3 (Ref.eq),12.19161,R,ugm-3,38.48116,R,ugm-3,57.17470,R,ugm-3,14.000,R,ugm-3 (BAM)
06-01-2019,17:00,28.986,R,ugm-3 (Ref.eq),10.83312,R,ugm-3,37.72683,R,ugm-3,54.33738,R,ugm-3,16.000,R,ugm-3 (BAM)
06-01-2019,18:00,36.716,R,ugm-3 (Ref.eq),11.91294,R,ugm-3,41.15688,R,ugm-3,59.42314,R,ugm-3,25.000,R,ugm-3 (BAM)
06-01-2019,19:00,29.952,R,ugm-3 (Ref.eq),36.33099,R,ugm-3,59.92748,R,ugm-3,115.63422,R,ugm-3,20.000,R,ugm-3 (BAM)
06-01-2019,20:00,28.986,R,ugm-3 (Ref.eq),20.30774,R,ugm-3,52.75025,R,ugm-3,83.88835,R,ugm-3,24.000,R,ugm-3 (BAM)
06-01-2019,21:00,28.986,R,ugm-3 (Ref.eq),7.00147,R,ugm-3,35.57179,R,ugm-3,46.30722,R,ugm-3,19.000,R,ugm-3 (BAM)
06-01-2019,22:00,40.580,R,ugm-3 (Ref.eq),10.38028,R,ugm-3,37.29694,R,ugm-3,53.21316,R,ugm-3,27.000,R,ugm-3 (BAM)
06-01-2019,23:00,36.716,R,ugm-3 (Ref.eq),8.70829,R,ugm-3,41.19899,R,ugm-3,54.55152,R,ugm-3,21.000,R,ugm-3 (BAM)
06-01-2019,24:00,35.749,R,ugm-3 (Ref.eq),10.76345,R,ugm-3,44.84665,R,ugm-3,61.35038,R,ugm-3,18.000,R,ugm-3 (BAM)
07-01-2019,01:00,33.817,R,ugm-3 (Ref.eq),7.86845,R,ugm-3,41.38470,R,ugm-3,53.44948,R,ugm-3,23.000,R,ugm-3 (BAM)
07-01-2019,02:00,34.783,R,ugm-3 (Ref.eq),7.21662,R,ugm-3,33.58323,R,ugm-3,44.64857,R,ugm-3,21.000,R,ugm-3 (BAM)
07-01-2019,03:00,32.851,R,ugm-3 (Ref.eq),3.87603,R,ugm-3,29.79716,R,ugm-3,35.74032,R,ugm-3,19.000,R,ugm-3 (BAM)
07-01-2019,04:00,26.087,R,ugm-3 (Ref.eq),3.94586,R,ugm-3,23.41137,R,ugm-3,29.46161,R,ugm-3,11.000,R,ugm-3 (BAM)
07-01-2019,05:00,20.290,R,ugm-3 (Ref.eq),4.60933,R,ugm-3,20.19385,R,ugm-3,27.26138,R,ugm-3,10.000,R,ugm-3 (BAM)
07-01-2019,06:00,19.324,R,ugm-3 (Ref.eq),12.67565,R,ugm-3,25.21284,R,ugm-3,44.64857,R,ugm-3,17.000,R,ugm-3 (BAM)
07-01-2019,07:00,25.121,R,ugm-3 (Ref.eq),19.38013,R,ugm-3,32.37363,R,ugm-3,62.08941,R,ugm-3,18.000,R,ugm-3 (BAM)
07-01-2019,08:00,26.087,R,ugm-3 (Ref.eq),19.97375,R,ugm-3,33.77098,R,ugm-3,64.39697,R,ugm-3,15.000,R,ugm-3 (BAM)
07-01-2019,09:00,26.087,R,ugm-3 (Ref.eq),30.55425,R,ugm-3,56.29328,R,ugm-3,103.14248,R,ugm-3,13.000,R,ugm-3 (BAM)
07-01-2019,10:00,25.121,R,ugm-3 (Ref.eq),24.96719,R,ugm-3,36.90097,R,ugm-3,75.18346,R,ugm-3,15.000,R,ugm-3 (BAM)
07-01-2019,11:00,28.020,R,ugm-3 (Ref.eq),23.18631,R,ugm-3,30.45504,R,ugm-3,66.00689,R,ugm-3,13.000,R,ugm-3 (BAM)
07-01-2019,12:00,40.580,R,ugm-3 (Ref.eq),28.49402,R,ugm-3,38.46957,R,ugm-3,82.15980,R,ugm-3,15.000,R,ugm-3 (BAM)
07-01-2019,13:00,32.851,R,ugm-3 (Ref.eq),32.43989,R,ugm-3,25.97964,R,ugm-3,75.72010,R,ugm-3,13.000,R,ugm-3 (BAM)
07-01-2019,14:00,28.020,R,ugm-3 (Ref.eq),23.22123,R,ugm-3,31.09913,R,ugm-3,66.70453,R,ugm-3,16.000,R,ugm-3 (BAM)
07-01-2019,15:00,27.054,R,ugm-3 (Ref.eq),23.64026,R,ugm-3,28.79304,R,ugm-3,65.04094,R,ugm-3,16.000,R,ugm-3 (BAM)
07-01-2019,16:00,19.324,R,ugm-3 (Ref.eq),48.29318,R,ugm-3,33.65542,R,ugm-3,107.70393,R,ugm-3,12.000,R,ugm-3 (BAM)
07-01-2019,17:00,15.459,R,ugm-3 (Ref.eq),20.35786,R,ugm-3,28.94255,R,ugm-3,60.15750,R,ugm-3,10.000,R,ugm-3 (BAM)
07-01-2019,18:00,13.527,R,ugm-3 (Ref.eq),19.51980,R,ugm-3,24.16351,R,ugm-3,54.09345,R,ugm-3,11.000,R,ugm-3 (BAM)
07-01-2019,19:00,20.290,R,ugm-3 (Ref.eq),17.07546,R,ugm-3,20.34480,R,ugm-3,46.52681,R,ugm-3,11.000,R,ugm-3 (BAM)
07-01-2019,20:00,19.324,R,ugm-3 (Ref.eq),17.35482,R,ugm-3,27.16112,R,ugm-3,53.77147,R,ugm-3,9.000,R,ugm-3 (BAM)
07-01-2019,21:00,19.324,R,ugm-3 (Ref.eq),13.51371,R,ugm-3,18.99073,R,ugm-3,39.71146,R,ugm-3,12.000,R,ugm-3 (BAM)
07-01-2019,22:00,15.459,R,ugm-3 (Ref.eq),7.64729,R,ugm-3,13.87211,R,ugm-3,25.59780,R,ugm-3,11.000,R,ugm-3 (BAM)
07-01-2019,23:00,18.358,R,ugm-3 (Ref.eq),6.46004,R,ugm-3,13.86795,R,ugm-3,23.77322,R,ugm-3,8.000,R,ugm-3 (BAM)
07-01-2019,24:00,15.459,R,ugm-3 (Ref.eq),1.92055,R,ugm-3,11.97382,R,ugm-3,14.91863,R,ugm-3,6.000,R,ugm-3 (BAM)
08-01-2019,01:00,20.290,R,ugm-3 (Ref.eq),1.44688,R,ugm-3,9.32925,R,ugm-3,11.54776,R,ugm-3,6.000,R,ugm-3 (BAM)
08-01-2019,02:00,22.223,R,ugm-3 (Ref.eq),1.72692,R,ugm-3,11.91231,R,ugm-3,14.56022,R,ugm-3,6.000,R,ugm-3 (BAM)
08-01-2019,03:00,18.358,R,ugm-3 (Ref.eq),1.19017,R,ugm-3,7.69662,R,ugm-3,9.52152,R,ugm-3,7.000,R,ugm-3 (BAM)
08-01-2019,04:00,12.561,R,ugm-3 (Ref.eq),1.22518,R,ugm-3,8.34226,R,ugm-3,10.22084,R,ugm-3,7.000,R,ugm-3 (BAM)
08-01-2019,05:00,20.290,R,ugm-3 (Ref.eq),1.22518,R,ugm-3,8.55744,R,ugm-3,10.43602,R,ugm-3,5.000,R,ugm-3 (BAM)
08-01-2019,06:00,20.290,R,ugm-3 (Ref.eq),3.22047,R,ugm-3,12.97539,R,ugm-3,17.91337,R,ugm-3,6.000,R,ugm-3 (BAM)
08-01-2019,07:00,19.324,R,ugm-3 (Ref.eq),5.98588,R,ugm-3,21.21535,R,ugm-3,30.39356,R,ugm-3,5.000,R,ugm-3 (BAM)
08-01-2019,08:00,19.324,R,ugm-3 (Ref.eq),12.74187,R,ugm-3,31.56697,R,ugm-3,51.10422,R,ugm-3,13.000,R,ugm-3 (BAM)
08-01-2019,09:00,22.223,R,ugm-3 (Ref.eq),19.98793,R,ugm-3,39.06919,R,ugm-3,69.71692,R,ugm-3,12.000,R,ugm-3 (BAM)
08-01-2019,10:00,26.087,R,ugm-3 (Ref.eq),20.68803,R,ugm-3,38.31848,R,ugm-3,70.03968,R,ugm-3,9.000,R,ugm-3 (BAM)
08-01-2019,11:00,23.189,R,ugm-3 (Ref.eq),13.93204,R,ugm-3,29.63447,R,ugm-3,50.99664,R,ugm-3,7.000,R,ugm-3 (BAM)
08-01-2019,12:00,25.121,R,ugm-3 (Ref.eq),8.54125,R,ugm-3,19.98686,R,ugm-3,33.08326,R,ugm-3,6.000,R,ugm-3 (BAM)
08-01-2019,13:00,32.851,R,ugm-3 (Ref.eq),8.61126,R,ugm-3,18.80363,R,ugm-3,32.00738,R,ugm-3,10.000,R,ugm-3 (BAM)
08-01-2019,14:00,27.054,R,ugm-3 (Ref.eq),7.35108,R,ugm-3,16.05582,R,ugm-3,27.32731,R,ugm-3,12.000,R,ugm-3 (BAM)
08-01-2019,15:00,20.290,R,ugm-3 (Ref.eq),6.58096,R,ugm-3,17.77458,R,ugm-3,27.86525,R,ugm-3,47.000,R,ugm-3 (BAM)
08-01-2019,16:00,27.054,R,ugm-3 (Ref.eq),12.98690,R,ugm-3,25.70427,R,ugm-3,45.61724,R,ugm-3,12.000,R,ugm-3 (BAM)
08-01-2019,17:00,24.155,R,ugm-3 (Ref.eq),7.87615,R,ugm-3,26.87020,R,ugm-3,38.94680,R,ugm-3,11.000,R,ugm-3 (BAM)
08-01-2019,18:00,24.155,R,ugm-3 (Ref.eq),10.32651,R,ugm-3,35.43184,R,ugm-3,51.26561,R,ugm-3,13.000,R,ugm-3 (BAM)
08-01-2019,19:00,19.324,R,ugm-3 (Ref.eq),7.80614,R,ugm-3,26.22443,R,ugm-3,38.19368,R,ugm-3,15.000,R,ugm-3 (BAM)
08-01-2019,20:00,25.121,R,ugm-3 (Ref.eq),10.71157,R,ugm-3,39.57529,R,ugm-3,55.99947,R,ugm-3,13.000,R,ugm-3 (BAM)
08-01-2019,21:00,24.155,R,ugm-3 (Ref.eq),8.75128,R,ugm-3,32.62915,R,ugm-3,46.04759,R,ugm-3,11.000,R,ugm-3 (BAM)
08-01-2019,22:00,19.324,R,ugm-3 (Ref.eq),4.16561,R,ugm-3,18.19664,R,ugm-3,24.58382,R,ugm-3,8.000,R,ugm-3 (BAM)
08-01-2019,23:00,17.392,R,ugm-3 (Ref.eq),2.83542,R,ugm-3,16.52447,R,ugm-3,20.87204,R,ugm-3,8.000,R,ugm-3 (BAM)
08-01-2019,24:00,16.425,R,ugm-3 (Ref.eq),2.24033,R,ugm-3,18.51280,R,ugm-3,21.94792,R,ugm-3,7.000,R,ugm-3 (BAM)
09-01-2019,01:00,21.256,R,ugm-3 (Ref.eq),3.04123,R,ugm-3,24.67134,R,ugm-3,29.33449,R,ugm-3,9.000,R,ugm-3 (BAM)
09-01-2019,02:00,14.493,R,ugm-3 (Ref.eq),2.66692,R,ugm-3,18.63062,R,ugm-3,22.71985,R,ugm-3,8.000,R,ugm-3 (BAM)
09-01-2019,03:00,16.425,R,ugm-3 (Ref.eq),1.82474,R,ugm-3,12.94783,R,ugm-3,15.74572,R,ugm-3,6.000,R,ugm-3 (BAM)
09-01-2019,04:00,17.392,R,ugm-3 (Ref.eq),1.47383,R,ugm-3,10.46616,R,ugm-3,12.72599,R,ugm-3,10.000,R,ugm-3 (BAM)
09-01-2019,05:00,9.662,R,ugm-3 (Ref.eq),1.19310,R,ugm-3,7.33764,R,ugm-3,9.16703,R,ugm-3,8.000,R,ugm-3 (BAM)
09-01-2019,06:00,11.594,R,ugm-3 (Ref.eq),2.14056,R,ugm-3,7.93399,R,ugm-3,11.21613,R,ugm-3,8.000,R,ugm-3 (BAM)
09-01-2019,07:00,12.561,R,ugm-3 (Ref.eq),3.47402,R,ugm-3,13.16907,R,ugm-3,18.49583,R,ugm-3,6.000,R,ugm-3 (BAM)
09-01-2019,08:00,13.527,R,ugm-3 (Ref.eq),7.26386,R,ugm-3,23.31948,R,ugm-3,34.45724,R,ugm-3,7.000,R,ugm-3 (BAM)
09-01-2019,09:00,17.392,R,ugm-3 (Ref.eq),21.96703,R,ugm-3,44.12958,R,ugm-3,77.81189,R,ugm-3,8.000,R,ugm-3 (BAM)
09-01-2019,10:00,16.425,R,ugm-3 (Ref.eq),13.05389,R,ugm-3,34.82471,R,ugm-3,54.84040,R,ugm-3,6.000,R,ugm-3 (BAM)
09-01-2019,11:00,22.223,R,ugm-3 (Ref.eq),12.10643,R,ugm-3,25.38488,R,ugm-3,43.94781,R,ugm-3,20.000,R,ugm-3 (BAM)
09-01-2019,12:00,20.290,R,ugm-3 (Ref.eq),11.54497,R,ugm-3,24.68198,R,ugm-3,42.38403,R,ugm-3,5.000,R,ugm-3 (BAM)
09-01-2019,13:00,21.256,R,ugm-3 (Ref.eq),10.63260,R,ugm-3,20.95818,R,ugm-3,37.26127,R,ugm-3,10.000,R,ugm-3 (BAM)
09-01-2019,14:00,26.087,R,ugm-3 (Ref.eq),11.12388,R,ugm-3,18.04795,R,ugm-3,35.10433,R,ugm-3,7.000,R,ugm-3 (BAM)
09-01-2019,15:00,26.087,R,ugm-3 (Ref.eq),12.14152,R,ugm-3,23.17412,R,ugm-3,41.79086,R,ugm-3,8.000,R,ugm-3 (BAM)
09-01-2019,16:00,14.493,R,ugm-3 (Ref.eq),23.33558,R,ugm-3,33.88869,R,ugm-3,69.66942,R,ugm-3,11.000,R,ugm-3 (BAM)
09-01-2019,17:00,17.392,R,ugm-3 (Ref.eq),12.45734,R,ugm-3,29.75388,R,ugm-3,48.85487,R,ugm-3,12.000,R,ugm-3 (BAM)
09-01-2019,18:00,21.256,R,ugm-3 (Ref.eq),10.80806,R,ugm-3,26.62075,R,ugm-3,43.19288,R,ugm-3,11.000,R,ugm-3 (BAM)
09-01-2019,19:00,23.189,R,ugm-3 (Ref.eq),9.43951,R,ugm-3,27.64070,R,ugm-3,42.11441,R,ugm-3,14.000,R,ugm-3 (BAM)
09-01-2019,20:00,21.256,R,ugm-3 (Ref.eq),7.75513,R,ugm-3,25.37023,R,ugm-3,37.26127,R,ugm-3,18.000,R,ugm-3 (BAM)